Back to catalog

COSMOS 2607

AliveMilitaryPO
NORAD 67681·PAYLOAD·🇷🇺 Russia

Launched Feb 5, 2026 from Plesetsk Cosmodrome

Loading…

Next Passes (next 24 hours)

TLE

FreshSource: Space-Track

Epoch: Sep 14, 2026, 02:29 UTC

1 67681U 26023H   26257.10353829  .00008314  00000-0  31702-3 0  9996
2 67681  96.6206 311.1093 0021831 159.3024 200.9106 15.26671476 33555

Track COSMOS 2607 in real time with AllMySat

Download on the App Store